カタログに戻る

JCSAT 10

運用中通信GEO
NORAD 29272·PAYLOAD·🇯🇵 Japan

打ち上げ Aug 11, 2006 から Guiana Space Centre

Loading…

TLE

最新Source: Space-Track

元期: Sep 14, 2026, 14:24 UTC

1 29272U 06033A   26257.60049446 -.00000353  00000-0  00000-0 0  9991
2 29272   0.0425 277.3040 0002278 258.0421 162.4079  1.00271392 48634

AllMySatでJCSAT 10をリアルタイム追跡

Download on the App Store